Regional Weather Roundup
Issued by NWS

Home | Current Version | Previous Version | Text Only | Print | Product List | Glossary Off
Versions: 1 2 3 4 5 6 7 8 9 10 11 12 13 14 15 16 17 18 19 20 21 22 23 24 25 26 27 28 29 30 31 32 33 34 35 36 37 38 39 40 41 42 43 44 45 46 47 48 49 50

000
ASUS43 KFSD 160602
RWRSD

WEATHER ROUNDUP FOR SOUTH DAKOTA
NATIONAL WEATHER SERVICE SIOUX FALLS SD
100 AM CDT WED APR 16 2014

NOTE: "FAIR" INDICATES FEW OR NO CLOUDS BELOW 12,000 FEET WITH NO
SIGNIFICANT WEATHER AND/OR OBSTRUCTIONS TO VISIBILITY.


SDZ001>005-009-010-012>017-160700-
NORTHWEST AND NORTH CENTRAL SOUTH DAKOTA

CITY           SKY/WX    TMP DP  RH WIND       PRES   REMARKS
BUFFALO          N/A     40  26  57 NE12      29.57R
MOBRIDGE       MOCLDY    33  18  53 E26G40    29.62R WCI  20
$$

SDZ012>016-024>037-041>051-057-063-072>074-160700-
SOUTHWEST AND SOUTH CENTRAL SOUTH DAKOTA

CITY           SKY/WX    TMP DP  RH WIND       PRES   REMARKS
RAPID CTY ARPT LGT RAIN  43  39  86 NW21      29.60R
PIERRE         CLOUDY    43  29  57 NE15      29.53R
CUSTER         LGT RAIN  36  33  89 N7        29.59F
PHILIP         CLOUDY    53  29  39 N12       29.51S
PINE RIDGE     CLOUDY    52  30  43 N6        29.56R
WINNER         MOCLDY    55  29  36 SE12      29.50S
$$

SDZ004>011-016>023-039-040-160700-
NORTHEAST SOUTH DAKOTA

CITY           SKY/WX    TMP DP  RH WIND       PRES   REMARKS
ABERDEEN       PTCLDY    32  19  58 E18       29.76F WCI  20
WATERTOWN      MOCLDY    32  21  64 E16G30    29.75S WCI  21
SISSETON         N/A     32  15  49 SE21      29.86F WCI  20
$$

SDZ017-020-022-023-036>040-048>070-160700-
SOUTHEAST SOUTH DAKOTA

CITY           SKY/WX    TMP DP  RH WIND       PRES   REMARKS
SIOUX FALLS    CLOUDY    40  26  57 SE16G24   29.72F
HURON          CLOUDY    41  26  55 SE17G26   29.63F
CHAMBERLAIN      N/A     46  30  53 SE14      29.52F
MITCHELL       CLOUDY    42  28  57 SE16      29.61F
YANKTON        FAIR      43  28  56 SE14      29.67F
$$

ABBREVIATIONS USED IN REMARKS
   TC - TEMPERATURE IN CELSIUS
  WCI - WIND CHILL INDEX
   HX - HEAT INDEX
  VSB - VISIBILITY




USA.gov is the U.S. government's official web portal to all federal, state and local government web resources and services.